{"data":{"norad_id":66365,"epoch":"2026-05-25T05:17:44.096064Z","epoch_age_seconds":56099,"freshness":"FRESH","line1":"1 66365U 25254T   26145.22064926  .00012598  00000+0  43663-3 0  9992","line2":"2 66365  53.1567 236.9204 0001154  82.9420 277.1712 15.30209313 30699","mean_motion":15.30209313,"eccentricity":0.0001154,"inclination_deg":53.1567,"raan_deg":236.9204,"arg_perigee_deg":82.942,"mean_anomaly_deg":277.1712,"bstar":0.00043663,"rev_number":3069,"period_min":94.104772972323,"perigee_km":474.39638900113,"apogee_km":475.97813624094,"semimajor_km":6853.324262621,"source":"CELESTRAK","updated_at":"2026-05-25T13:38:21.177589Z"}}